| time (UTC) | temp F | wind direction | speed MPH | gust MPH | rain 1hr in | rain 24hr in | rain mn in | humidity % | barometer mb |
| 20260506090026 | 76 | 208 | 0.0 | 2.0 | 0.00 | 0.00 | 0.00 | 94 | 1007.1 |
| 20260506084525 | 76 | 200 | 0.0 | 5.0 | 0.00 | 0.00 | 0.00 | 94 | 1007.3 |
| 20260506083022 | 76 | 196 | 1.0 | 5.0 | 0.00 | 0.00 | 0.00 | 94 | 1007.3 |
| 20260506081524 | 76 | 214 | 1.0 | 4.0 | 0.00 | 0.00 | 0.00 | 94 | 1007.5 |
| 20260506073016 | 76 | 197 | 0.0 | 3.0 | 0.00 | 0.00 | 0.00 | 93 | 1008.0 |
| 20260506071515 | 76 | 200 | 0.0 | 4.0 | 0.00 | 0.00 | 0.00 | 93 | 1008.1 |
| 20260506061514 | 76 | 213 | 2.0 | 7.0 | 0.00 | 0.00 | 0.00 | 92 | 1007.9 |
| 20260506044501 | 77 | 134 | 3.0 | 8.0 | 0.00 | 0.00 | 0.00 | 92 | 1008.0 |
| 20260506043100 | 77 | 202 | 2.0 | 8.0 | 0.00 | 0.00 | 0.00 | 91 | 1007.9 |
| 20260506041600 | 77 | 212 | 2.0 | 7.0 | 0.00 | 0.00 | 0.00 | 91 | 1007.9 |
| 20260506040100 | 77 | 204 | 2.0 | 5.0 | 0.00 | 0.00 | 0.00 | 91 | 1008.0 |
| 20260506034600 | 77 | 196 | 3.0 | 8.0 | 0.00 | 0.00 | 0.00 | 92 | 1008.0 |
| 20260506033058 | 77 | 186 | 2.0 | 10.0 | 0.00 | 0.00 | 0.00 | 92 | 1007.9 |
| 20260506031559 | 77 | 221 | 2.0 | 10.0 | 0.00 | 0.00 | 0.00 | 92 | 1007.8 |
| 20260506030058 | 77 | 206 | 3.0 | 7.0 | 0.00 | 0.00 | 0.00 | 91 | 1007.7 |
| 20260506024601 | 77 | 185 | 2.0 | 6.0 | 0.00 | 0.00 | 0.00 | 92 | 1007.5 |
| 20260506023100 | 77 | 165 | 2.0 | 8.0 | 0.00 | 0.00 | 0.00 | 92 | 1007.3 |
| 20260506021555 | 76 | 212 | 1.0 | 5.0 | 0.00 | 0.00 | 0.00 | 92 | 1007.0 |
| 20260506020055 | 76 | 198 | 2.0 | 5.0 | 0.00 | 0.00 | 0.00 | 92 | 1006.8 |
| 20260506014554 | 77 | 203 | 1.0 | 6.0 | 0.00 | 0.00 | 0.00 | 91 | 1006.7 |
| 20260506013053 | 77 | 209 | 2.0 | 7.0 | 0.00 | 0.00 | 0.00 | 91 | 1006.5 |
| 20260506011552 | 77 | 162 | 2.0 | 6.0 | 0.00 | 0.00 | 0.00 | 90 | 1006.2 |
| 20260506010052 | 78 | 174 | 3.0 | 8.0 | 0.00 | 0.00 | 0.00 | 89 | 1006.1 |
| 20260506004552 | 78 | 210 | 3.0 | 8.0 | 0.00 | 0.00 | 0.00 | 89 | 1006.0 |
| 20260506003050 | 78 | 200 | 3.0 | 9.0 | 0.00 | 0.00 | 0.00 | 88 | 1005.9 |
| 20260506001551 | 78 | 191 | 4.0 | 11.0 | 0.00 | 0.00 | 0.00 | 88 | 1005.9 |
| 20260506000048 | 79 | 179 | 2.0 | 11.0 | 0.00 | 0.00 | 0.00 | 87 | 1005.9 |
| 20260505234550 | 79 | 205 | 3.0 | 11.0 | 0.00 | 0.00 | 0.00 | 87 | 1005.8 |
| 20260505233046 | 79 | 184 | 4.0 | 10.0 | 0.00 | 0.00 | 0.00 | 87 | 1006.0 |
| 20260505231558 | 79 | 213 | 5.0 | 12.0 | 0.00 | 0.00 | 0.00 | 86 | 1006.0 |
| 20260505230055 | 80 | 204 | 4.0 | 10.0 | 0.00 | 0.00 | 0.00 | 85 | 1006.1 |
| 20260505224547 | 80 | 188 | 5.0 | 11.0 | 0.00 | 0.00 | 0.00 | 84 | 1005.9 |
| 20260505223041 | 81 | 222 | 5.0 | 15.0 | 0.00 | 0.00 | 0.00 | 84 | 1006.1 |
| 20260505221541 | 81 | 125 | 4.0 | 9.0 | 0.00 | 0.00 | 0.00 | 85 | 1006.1 |
| 20260505220039 | 80 | 215 | 5.0 | 9.0 | 0.00 | 0.00 | 0.00 | 86 | 1006.2 |
| 20260505214537 | 80 | 200 | 3.0 | 10.0 | 0.00 | 0.00 | 0.00 | 86 | 1006.5 |
| 20260505213044 | 80 | 143 | 3.0 | 10.0 | 0.00 | 0.00 | 0.00 | 86 | 1006.5 |
| 20260505211535 | 81 | 145 | 4.0 | 11.0 | 0.00 | 0.00 | 0.00 | 85 | 1006.7 |
| 20260505210035 | 80 | 194 | 5.0 | 11.0 | 0.00 | 0.00 | 0.00 | 86 | 1006.8 |
| 20260505204531 | 80 | 205 | 3.0 | 9.0 | 0.00 | 0.00 | 0.00 | 86 | 1007.1 |
| 20260505203029 | 81 | 167 | 3.0 | 7.0 | 0.00 | 0.00 | 0.00 | 85 | 1007.2 |
| 20260505201528 | 81 | 188 | 3.0 | 10.0 | 0.00 | 0.00 | 0.00 | 85 | 1007.5 |
| 20260505200029 | 80 | 163 | 5.0 | 11.0 | 0.00 | 0.00 | 0.00 | 85 | 1007.6 |
| 20260505194528 | 81 | 178 | 4.0 | 11.0 | 0.00 | 0.00 | 0.00 | 85 | 1007.7 |
| 20260505193028 | 81 | 188 | 4.0 | 12.0 | 0.00 | 0.00 | 0.00 | 85 | 1007.7 |
| 20260505191527 | 81 | 214 | 2.0 | 8.0 | 0.00 | 0.00 | 0.00 | 85 | 1007.8 |
| 20260505190023 | 80 | 200 | 2.0 | 9.0 | 0.00 | 0.00 | 0.00 | 86 | 1007.8 |
| 20260505184523 | 79 | 155 | 2.0 | 10.0 | 0.00 | 0.00 | 0.00 | 86 | 1008.0 |
| 20260505183032 | 80 | 165 | 2.0 | 7.0 | 0.00 | 0.00 | 0.00 | 86 | 1008.2 |
| 20260505181522 | 79 | 207 | 3.0 | 9.0 | 0.00 | 0.00 | 0.00 | 87 | 1008.2 |
| 20260505180041 | 79 | 135 | 4.0 | 10.0 | 0.00 | 0.00 | 0.00 | 86 | 1008.2 |
| 20260505174521 | 80 | 191 | 3.0 | 9.0 | 0.00 | 0.00 | 0.00 | 85 | 1008.2 |
| 20260505173018 | 79 | 200 | 3.0 | 8.0 | 0.00 | 0.00 | 0.00 | 86 | 1008.4 |
| 20260505171516 | 79 | 183 | 3.0 | 9.0 | 0.00 | 0.00 | 0.00 | 86 | 1008.6 |
| 20260505170020 | 78 | 179 | 2.0 | 9.0 | 0.00 | 0.00 | 0.00 | 87 | 1008.6 |
| 20260505164515 | 79 | 212 | 3.0 | 9.0 | 0.00 | 0.00 | 0.00 | 86 | 1008.5 |
| 20260505163014 | 79 | 217 | 1.0 | 10.0 | 0.00 | 0.00 | 0.00 | 86 | 1008.6 |
| 20260505161513 | 79 | 217 | 4.0 | 11.0 | 0.00 | 0.00 | 0.00 | 85 | 1008.4 |
| 20260505153012 | 79 | 195 | 2.0 | 6.0 | 0.00 | 0.00 | 0.00 | 84 | 1008.2 |
| 20260505151510 | 80 | 191 | 1.0 | 10.0 | 0.00 | 0.00 | 0.00 | 84 | 1008.1 |
| 20260505124551 | 74 | 182 | 1.0 | 7.0 | 0.00 | 0.00 | 0.00 | 90 | 1007.7 |
| 20260505123048 | 74 | 198 | 1.0 | 7.0 | 0.00 | 0.00 | 0.00 | 90 | 1007.6 |
| 20260505121548 | 74 | 151 | 1.0 | 5.0 | 0.00 | 0.00 | 0.00 | 91 | 1007.7 |
| 20260505120050 | 73 | 162 | 1.0 | 7.0 | 0.00 | 0.00 | 0.00 | 91 | 1007.8 |
| 20260505114546 | 73 | 154 | 1.0 | 4.0 | 0.00 | 0.00 | 0.00 | 91 | 1007.5 |
| 20260505113051 | 73 | 190 | 2.0 | 5.0 | 0.00 | 0.00 | 0.00 | 91 | 1007.5 |
| 20260505111544 | 73 | 148 | 1.0 | 2.0 | 0.00 | 0.00 | 0.00 | 91 | 1007.7 |
| 20260505101558 | 73 | 158 | 1.0 | 5.0 | 0.00 | 0.00 | 0.00 | 90 | 1007.6 |
| 20260505100057 | 73 | 150 | 0.0 | 5.0 | 0.00 | 0.00 | 0.00 | 89 | 1007.5 |
| 20260505094538 | 73 | 215 | 0.0 | 4.0 | 0.00 | 0.00 | 0.00 | 89 | 1007.7 |
| 20260505093038 | 73 | 145 | 1.0 | 5.0 | 0.00 | 0.00 | 0.00 | 89 | 1007.8 |
| 20260505091536 | 73 | 175 | 0.0 | 3.0 | 0.00 | 0.00 | 0.00 | 89 | 1007.8 |